[[{"header":{"parameterUnit":"m.s-1","parameterCategory":1,"la1":30.2991,"la2":30.254,"lo1":-89.0895,"lo2":-89.0444,"dy":0.0017,"dx":0.0017,"nx":28,"ny":28,"refTime":"2025-01-12T03:00:00:Z","depth":0,"parameterNumber":2,"parameterNumberName":"U-component_of_WINDS"},"data":[0,0,0,0,0,0,0,0,0,0,0,0,0,0,0,0,0,0,0,0,0,0,0,0,0,0,0,0,0,0,0,0,0,0,0,0,0,0,0,0,0,0,0,0,0,0,0,0,0,0,0,0,0,0,0,0,0,0,-3.1228,-3.1228,0,-3.1294,-3.1295,-3.1296,-3.1217,-3.1214,-3.1211,-3.1208,-3.1276,-3.128,-3.1285,0,0,0,0,0,0,0,0,0,0,0,0,0,-3.1031,-3.1035,-3.1228,-3.1228,-3.1229,-3.1294,-3.1295,-3.1296,-3.1217,-3.1214,-3.121,-3.1207,-3.1275,-3.128,-3.1285,0,0,0,0,0,0,0,0,0,0,0,0,0,-3.1109,-3.1036,-3.1227,-3.1198,-3.1196,-3.1294,-3.1295,-3.1296,-3.1218,-3.1214,-3.1209,-3.1205,-3.1273,-3.1279,-3.1286,-3.1416,0,0,-3.1307,-3.131,0,0,0,0,0,0,0,0,-3.1104,-3.1116,-3.1201,-3.12,-3.1198,-3.1243,-3.125,-3.1337,-3.1219,-3.121,-3.1208,-3.1203,-3.1269,-3.1275,-3.1298,-3.142,-3.1422,-3.1308,-3.1312,-3.1315,-3.1317,0,0,0,0,0,0,0,-3.1099,-3.1113,-3.1254,-3.1203,-3.1201,-3.1181,-3.1187,-3.1266,-3.1263,-3.121,-3.1205,-3.1214,-3.1267,-3.1291,-3.1299,-3.1423,-3.1307,-3.1313,-3.1318,-3.132,-3.1655,-3.166,0,0,0,0,0,0,-3.1097,-3.1109,-3.1252,-3.1256,-3.1139,-3.1188,-3.1195,-3.1233,-3.1262,-3.1262,-3.1217,-3.121,-3.1282,-3.1291,-3.1301,-3.1456,-3.1315,-3.1321,-3.1325,-3.1651,-3.1656,-3.1662,0,0,0,0,0,0,-3.1093,-3.1111,-3.1249,-3.1181,-3.1197,-3.1196,-3.1239,-3.1237,-3.1261,-3.1267,-3.1266,-3.1243,-3.1279,-3.1291,-3.1388,-3.1457,-3.1324,-3.133,-3.1645,-3.1652,-3.1659,-3.1767,0,0,0,0,0,0,-3.1088,-3.111,-3.116,-3.1183,-3.1201,-3.1337,-3.1244,-3.1241,-3.1273,-3.1264,-3.1291,-3.1292,-3.1276,-3.1379,-3.1395,-3.1464,-3.1336,-3.1639,-3.1648,-3.1657,-3.1757,-3.1777,-3.1794,0,0,0,0,0,-3.1081,-3.1187,-3.1163,-3.1181,-3.1263,-3.1341,-3.1351,-3.1331,-3.1279,-3.1329,-3.1333,-3.1291,-3.1446,-3.1389,-3.1407,-3.1479,-3.1634,-3.1646,-3.1656,-3.1749,-3.1773,-3.1793,0,0,0,0,0,0,-3.1173,-3.119,-3.1163,-3.1279,-3.1309,-3.1327,-3.139,-3.1357,-3.1402,-3.1392,-3.1365,-3.1372,-3.1476,-3.1486,-3.1422,-3.1606,-3.1532,-3.1547,-3.1596,-3.1619,-3.1637,-3.1633,-3.1341,0,0,0,0,0,-3.1206,-3.1268,-3.1279,-3.1381,-3.1397,-3.1391,-3.1424,-3.1406,-3.1436,-3.1448,-3.1459,-3.1489,-3.1544,-3.1582,-3.1633,-3.1757,-3.1763,-3.1816,-3.1834,-3.1849,-3.1863,-3.1929,-3.1953,-3.1697,-3.1697,-3.1697,0,0,-3.1277,-3.1294,-3.1334,-3.14,-3.1421,-3.1485,-3.1402,-3.1474,-3.1521,-3.1459,-3.1552,-3.1561,-3.1592,-3.1704,-3.1753,-3.1716,-3.1934,-3.1863,-3.1874,-3.188,-3.1943,-3.1967,-3.1989,-3.1705,-3.1703,-3.1702,0,0,-3.1438,-3.1457,-3.1544,-3.1567,-3.16,-3.1595,-3.1615,-3.1638,-3.1642,-3.1735,-3.1689,-3.1744,-3.1841,-3.1865,-3.189,-3.206,-3.2023,-3.2077,-3.2174,-3.2239,-3.2259,-3.2277,-3.2339,-3.2361,-3.2091,-3.2091,-3.2091,0,-3.1522,-3.1618,-3.1593,-3.1668,-3.1698,-3.1644,-3.1732,-3.1755,-3.1803,-3.1825,-3.1782,-3.1902,-3.1919,-3.2036,-3.2077,-3.2099,-3.2122,-3.2075,-3.2258,-3.2276,-3.2292,-3.2351,-3.2374,-3.2097,-3.2097,-3.2096,-3.2095,0,-3.1719,-3.1786,-3.1852,-3.19,-3.1937,-3.2019,-3.2006,-3.2047,-3.2025,-3.2024,-3.2119,-3.2138,-3.2192,-3.2218,-3.2198,-3.2332,-3.2308,-3.2262,-3.2187,-3.2323,-3.2378,-3.24,-3.2107,-3.2104,-3.2102,-3.2101,0,0,-3.1943,-3.1975,-3.2,-3.2021,-3.2053,-3.2104,-3.2182,-3.2235,-3.2271,-3.2305,-3.237,-3.2452,-3.241,-3.2438,-3.242,-3.2477,-3.2611,-3.2424,-3.2424,-3.2459,-3.2761,-3.2797,-3.2824,-3.2586,-3.259,-3.2593,-3.2759,0,-3.2106,-3.2242,-3.2222,-3.2353,-3.2415,-3.2363,-3.2431,-3.2458,-3.2459,-3.251,-3.2511,-3.257,-3.2509,-3.2526,-3.258,-3.2584,-3.2672,-3.2571,-3.2647,-3.265,-3.2643,-3.2852,-3.289,-3.3046,-3.278,-3.2784,-3.2786,0,-3.2315,-3.2357,-3.2495,-3.2517,-3.2542,-3.2603,-3.2651,-3.2701,-3.2729,-3.2726,-3.2757,-3.2728,-3.2805,-3.2727,-3.2834,-3.2766,-3.2795,-3.2801,-3.2807,-3.2815,-3.2728,-3.2867,-3.3095,-3.312,-3.282,-3.2817,-3.2815,0,-3.2466,-3.2557,-3.2651,-3.2671,-3.2698,-3.2743,-3.2756,-3.278,-3.2813,-3.2854,-3.2875,-3.2924,-3.2952,-3.299,-3.2975,-3.2919,-3.3085,-3.3005,-3.3085,-3.3085,-3.3124,-3.3122,-3.3362,-3.314,-3.3139,-3.3139,-3.3138,0,-3.2652,-3.2738,-3.272,-3.2778,-3.2873,-3.2848,-3.2943,-3.295,-3.2972,-3.303,-3.2987,-3.3043,-3.3018,-3.3072,-3.306,-3.3151,-3.3163,-3.3162,-3.3159,-3.3168,-3.3168,-3.3188,-3.3178,-3.3145,-3.3144,-3.3143,-3.3141,0,-3.2838,-3.2828,-3.2928,-3.2945,-3.2952,-3.3021,-3.3036,-3.309,-3.3087,-3.3162,-3.3177,-3.3173,-3.3234,-3.3221,-3.3288,-3.328,-3.3394,-3.3376,-3.3386,-3.3382,-3.3463,-3.3456,-3.3726,-3.376,-3.3514,-3.3517,-3.3518,0,-3.2958,-3.3024,-3.3048,-3.3084,-3.3101,-3.316,-3.3193,-3.317,-3.3207,-3.3244,-3.3294,-3.3351,-3.3396,-3.3496,-3.3498,-3.3549,-3.3533,-3.3623,-3.354,-3.3547,-3.3536,-3.3533,-3.354,-3.3641,-3.3643,-3.3646,-3.3648,0,-3.3173,-3.3165,-3.3215,-3.3265,-3.3306,-3.3344,-3.3377,-3.3409,-3.3388,-3.3432,-3.3494,-3.3528,-3.3596,-3.3654,-3.3701,-3.3713,-3.3678,-3.3673,-3.3695,-3.3706,-3.3709,-3.371,-3.3433,-3.3668,-3.3666,-3.3664,-3.3663,-3.3662,-3.3331,-3.3387,-3.3413,-3.347,-3.3493,-3.3525,-3.3577,-3.358,-3.3632,-3.3686,-3.3668,-3.3739,-3.3765,-3.3824,-3.3843,-3.3897,-3.3863,-3.3894,-3.3902,-3.3911,-3.3921,-3.3699,-3.3905,-3.3905,-3.3904,-3.3904,-3.3903,0,-3.3545,-3.3559,-3.3612,-3.366,-3.3705,-3.3666,-3.3701,-3.3742,-3.3805,-3.3832,-3.3876,-3.3947,-3.4003,-3.4009,-3.4061,-3.4103,-3.4088,-3.4118,-3.4116,-3.4119,-3.3948,-3.3925,-3.4129,-3.4129,-3.4129,-3.4129,-3.4129,-3.4129,-3.3662,-3.3755,-3.375,-3.3853,-3.3866,-3.3936,-3.3959,-3.3988,-3.4009,-3.4091,-3.4137,-3.414,-3.4159,-3.4211,-3.426,-3.426,-3.4282,-3.4319,-3.4313,-3.4154,-3.4131,-3.411,-3.4088,-3.4323,-3.4324,-3.448,-3.4481,-3.4482]},{"header":{"parameterUnit":"m.s-1","parameterCategory":1,"la1":30.2991,"la2":30.254,"lo1":-89.0895,"lo2":-89.0444,"dy":0.0017,"dx":0.0017,"nx":28,"ny":28,"refTime":"2025-01-12T03:00:00:Z","depth":0,"parameterNumber":3,"parameterNumberName":"V-component_of_WINDS"},"data":[0,0,0,0,0,0,0,0,0,0,0,0,0,0,0,0,0,0,0,0,0,0,0,0,0,0,0,0,0,0,0,0,0,0,0,0,0,0,0,0,0,0,0,0,0,0,0,0,0,0,0,0,0,0,0,0,0,0,-5.5909,-5.5909,0,-5.5906,-5.5906,-5.5905,-5.581,-5.5808,-5.5805,-5.5803,-5.5799,-5.5802,-5.5804,0,0,0,0,0,0,0,0,0,0,0,0,0,-5.5833,-5.5835,-5.5909,-5.5909,-5.5909,-5.5906,-5.5906,-5.5905,-5.5811,-5.5808,-5.5805,-5.5802,-5.5799,-5.5801,-5.5804,0,0,0,0,0,0,0,0,0,0,0,0,0,-5.5852,-5.5836,-5.5909,-5.5861,-5.5857,-5.5906,-5.5906,-5.5905,-5.5811,-5.5808,-5.5804,-5.5801,-5.5798,-5.5801,-5.5804,-5.5898,0,0,-5.5814,-5.5816,0,0,0,0,0,0,0,0,-5.5851,-5.5855,-5.5869,-5.5865,-5.586,-5.5855,-5.5877,-5.5903,-5.5812,-5.5829,-5.5803,-5.5799,-5.5821,-5.5822,-5.5829,-5.5898,-5.5898,-5.5815,-5.5817,-5.5818,-5.5819,0,0,0,0,0,0,0,-5.585,-5.5854,-5.5908,-5.5869,-5.5864,-5.584,-5.5838,-5.5882,-5.5845,-5.5827,-5.582,-5.5821,-5.5818,-5.5826,-5.5829,-5.5898,-5.5814,-5.5817,-5.5819,-5.5821,-5.6042,-5.6046,0,0,0,0,0,0,-5.5855,-5.5854,-5.5908,-5.5908,-5.5846,-5.5844,-5.5843,-5.586,-5.5845,-5.5839,-5.5824,-5.5817,-5.5823,-5.5825,-5.5828,-5.5936,-5.5818,-5.5821,-5.5823,-5.6038,-5.6043,-5.6047,0,0,0,0,0,0,-5.5854,-5.5861,-5.5908,-5.5879,-5.5883,-5.5849,-5.587,-5.5862,-5.587,-5.5843,-5.5836,-5.584,-5.582,-5.5823,-5.5881,-5.5935,-5.5822,-5.5825,-5.6034,-5.604,-5.6045,-5.6154,0,0,0,0,0,0,-5.5852,-5.5861,-5.5896,-5.588,-5.5885,-5.5962,-5.5873,-5.5865,-5.5876,-5.5866,-5.5855,-5.585,-5.5817,-5.5877,-5.5884,-5.5937,-5.5828,-5.6029,-5.6036,-5.6043,-5.6145,-5.6162,-5.6177,0,0,0,0,0,-5.585,-5.5927,-5.5899,-5.5906,-5.5929,-5.5965,-5.5968,-5.5928,-5.5881,-5.5916,-5.5898,-5.585,-5.5928,-5.5884,-5.5891,-5.5946,-5.6025,-5.6034,-5.6043,-5.6138,-5.6159,-5.6177,0,0,0,0,0,0,-5.5951,-5.5924,-5.5892,-5.5967,-5.5969,-5.5949,-5.5992,-5.5952,-5.5967,-5.5958,-5.5908,-5.5906,-5.5972,-5.5964,-5.5916,-5.6035,-5.5968,-5.5979,-5.6038,-5.6057,-5.6073,-5.6073,-5.5831,0,0,0,0,0,-5.5982,-5.6014,-5.5989,-5.6057,-5.606,-5.6026,-5.604,-5.601,-5.601,-5.601,-5.5996,-5.5998,-5.6022,-5.604,-5.6061,-5.6144,-5.6139,-5.6185,-5.6201,-5.6214,-5.6224,-5.6267,-5.6286,-5.6076,-5.6076,-5.6076,0,0,-5.6046,-5.6036,-5.6059,-5.6077,-5.6075,-5.6109,-5.6027,-5.6067,-5.6091,-5.6016,-5.6069,-5.606,-5.6058,-5.6129,-5.6159,-5.6125,-5.6281,-5.6226,-5.6237,-5.6239,-5.6278,-5.6298,-5.6316,-5.6082,-5.6081,-5.608,0,0,-5.618,-5.6176,-5.6232,-5.6232,-5.6229,-5.6206,-5.622,-5.6206,-5.6196,-5.6249,-5.6193,-5.6221,-5.6265,-5.6266,-5.6272,-5.6407,-5.6363,-5.6415,-5.6499,-5.6541,-5.6557,-5.6572,-5.6619,-5.6637,-5.6425,-5.6425,-5.6425,0,-5.6261,-5.6309,-5.6266,-5.6309,-5.6318,-5.6252,-5.6308,-5.6309,-5.6315,-5.6322,-5.6284,-5.6336,-5.6331,-5.64,-5.6433,-5.6441,-5.6454,-5.6416,-5.6559,-5.6573,-5.6585,-5.663,-5.6648,-5.6431,-5.6431,-5.643,-5.6429,0,-5.6408,-5.6442,-5.6488,-5.6494,-5.6508,-5.6558,-5.6522,-5.6542,-5.651,-5.6491,-5.6545,-5.6536,-5.6554,-5.6568,-5.6538,-5.6634,-5.6612,-5.6567,-5.6498,-5.6613,-5.6653,-5.667,-5.644,-5.6438,-5.6436,-5.6435,0,0,-5.6606,-5.6587,-5.6604,-5.6606,-5.6598,-5.6624,-5.667,-5.6687,-5.6705,-5.671,-5.6747,-5.6786,-5.6743,-5.6751,-5.672,-5.6757,-5.6863,-5.6707,-5.6706,-5.6735,-5.6967,-5.7,-5.7021,-5.6834,-5.6837,-5.684,-5.6967,0,-5.6735,-5.6812,-5.6775,-5.6856,-5.6887,-5.6825,-5.6864,-5.6864,-5.6848,-5.6871,-5.6853,-5.688,-5.6823,-5.6827,-5.6861,-5.6843,-5.6909,-5.6833,-5.6868,-5.6869,-5.6869,-5.7042,-5.7078,-5.7198,-5.6982,-5.6985,-5.6987,0,-5.6896,-5.6908,-5.6993,-5.6979,-5.699,-5.7027,-5.7039,-5.7063,-5.7061,-5.7046,-5.7054,-5.7014,-5.7058,-5.6991,-5.705,-5.7,-5.7012,-5.7005,-5.7009,-5.701,-5.6935,-5.7047,-5.7236,-5.7254,-5.7012,-5.701,-5.7008,0,-5.7031,-5.7068,-5.7123,-5.7127,-5.7112,-5.7139,-5.7134,-5.7128,-5.7141,-5.7152,-5.7159,-5.7175,-5.7184,-5.7197,-5.7163,-5.7117,-5.7227,-5.7157,-5.7216,-5.7217,-5.7241,-5.724,-5.7434,-5.7251,-5.725,-5.725,-5.725,0,-5.7179,-5.7233,-5.7184,-5.7218,-5.7276,-5.7232,-5.7292,-5.728,-5.7275,-5.7306,-5.7253,-5.7283,-5.7236,-5.7261,-5.7234,-5.7287,-5.7292,-5.7281,-5.7273,-5.7285,-5.7287,-5.7292,-5.7282,-5.7255,-5.7254,-5.7253,-5.7252,0,-5.7339,-5.7309,-5.7364,-5.7345,-5.7342,-5.7386,-5.737,-5.74,-5.738,-5.7419,-5.7426,-5.7394,-5.7421,-5.7388,-5.7412,-5.7394,-5.7466,-5.7446,-5.7466,-5.746,-5.7521,-5.7516,-5.7724,-5.7749,-5.7551,-5.7553,-5.7555,0,-5.7435,-5.7475,-5.7461,-5.7477,-5.7475,-5.7502,-5.7514,-5.7473,-5.7487,-5.7488,-5.7518,-5.7541,-5.7556,-5.7602,-5.7581,-5.7599,-5.7578,-5.765,-5.7581,-5.7591,-5.7578,-5.7576,-5.758,-5.7664,-5.7667,-5.7668,-5.767,0,-5.7609,-5.7591,-5.7611,-5.7625,-5.7641,-5.7651,-5.7656,-5.7673,-5.7629,-5.7648,-5.7675,-5.7687,-5.7711,-5.7733,-5.7745,-5.774,-5.7698,-5.7692,-5.7707,-5.7719,-5.7729,-5.7724,-5.7504,-5.7687,-5.7686,-5.7684,-5.7683,-5.7683,-5.7739,-5.7771,-5.7766,-5.7789,-5.7789,-5.7795,-5.7822,-5.7805,-5.7826,-5.7842,-5.7816,-5.785,-5.7846,-5.7858,-5.7857,-5.7882,-5.7851,-5.7873,-5.7878,-5.7884,-5.7892,-5.7726,-5.7885,-5.7884,-5.7884,-5.7883,-5.7883,0,-5.7909,-5.7902,-5.7924,-5.7933,-5.7951,-5.791,-5.7914,-5.7932,-5.7961,-5.7961,-5.7977,-5.8008,-5.8029,-5.801,-5.8027,-5.8051,-5.8033,-5.8057,-5.8055,-5.8054,-5.792,-5.7905,-5.8072,-5.8072,-5.8072,-5.8072,-5.8072,-5.8072,-5.8,-5.8052,-5.8034,-5.8085,-5.8077,-5.8109,-5.8115,-5.812,-5.8119,-5.8155,-5.8173,-5.816,-5.8152,-5.8169,-5.8187,-5.818,-5.8189,-5.8221,-5.8208,-5.8082,-5.8064,-5.8046,-5.8032,-5.8223,-5.8223,-5.834,-5.8341,-5.8342]}]]